User: anonymous   Login
Location: Unspecified
(0.0000°N, 0.0000°E)
Time: 05:10:32
(UTC+00:00)
Language:

Vanguard 1 Rocket - Orbit

View from above orbital plane
View from above orbital plane
View from above satellite
View from above satellite

Ground track
Ground track

The orbit data is extracted from the following two-line orbital elements,

1    16U 58002A   18286.88536932 +.00000153 +00000-0 +20170-3 0  9993
2    16 034.2621 123.5103 2028178 174.8354 187.7036 10.48697703394522
Epoch (UTC): 13 October 2018 21:14:55
Eccentricity: 0.2028178
inclination: 34.2621°
perigee height: 650 km
apogee height: 4226 km
right ascension of ascending node: 123.5103°
argument of perigee: 174.8354°
revolutions per day: 10.48697703
mean anomaly at epoch: 187.7036°
orbit number at epoch: 39452

The dashed part of the orbit path shows where the satellite is in the earth's shadow,  

DLR